Change the Weather History Date:

Friday, December 20, 2013

  Actual Average Record
Temperature  
Mean Temperature 40 °F -  
Max Temperature 48 °F 53 °F 74 °F (1955)
Min Temperature 33 °F 26 °F 11 °F (1951)
Degree Days  
Heating Degree Days 24    
Moisture  
Dew Point 32 °F    
Average Humidity 81    
Maximum Humidity 100    
Minimum Humidity 34    
Precipitation  
Precipitation 0.21 in - - ()
Sea Level Pressure  
Sea Level Pressure 29.76 in    
Wind  
Wind Speed 4 mph (ENE)    
Max Wind Speed 18 mph    
Max Gust Speed 22 mph    
Visibility 5 miles    
Events Rain    
Averages and records for this station are not official NWS values.
T = Trace of Precipitation, MM = Missing Value Source: NWS Daily Summary

Daily Weather History Graph

Daily Weather History Graph

Search for Another Location

Airport or City:

Trip Planner

Search our weather history database for the weather conditions in past years. The results will help you decide how hot, cold, wet, or windy it might be!

Date:

Astronomy

Dec. 20, 2013 Rise Set
Actual Time 6:50 AM MST 4:50 PM MST
Civil Twilight 6:23 AM MST 5:17 PM MST
Nautical Twilight 5:52 AM MST 5:48 PM MST
Astronomical Twilight 5:22 AM MST 6:18 PM MST
Moon 8:04 PM MST (12/20) 8:54 AM MST (12/20)
Length of Visible Light 10h 54m
Length of Day
10h 00m
Waning Gibbous, 90% of the Moon is Illuminated
Dec 20
Waning Gibbous
Dec 25
Last Quarter
Jan 1
New
Jan 7
First Quarter
Jan 15
Full

Hourly Weather History & Observations

Time (MST) Temp. Windchill Dew Point Humidity Pressure Visibility Wind Dir Wind Speed Gust Speed Precip Events Conditions
12:15 AM 44.6 °F - 24.8 °F 46% 29.79 in 10.0 mi Calm Calm - N/A   Clear
12:35 AM 44.6 °F - 24.8 °F 46% 29.79 in 10.0 mi Calm Calm - N/A   Clear
12:55 AM 42.8 °F - 24.8 °F 49% 29.79 in 10.0 mi Calm Calm - N/A   Clear
1:15 AM 41.0 °F - 24.8 °F 53% 29.79 in 10.0 mi Calm Calm - N/A   Clear
1:35 AM 41.0 °F - 23.0 °F 49% 29.79 in 10.0 mi Calm Calm - N/A   Clear
1:55 AM 39.2 °F - 23.0 °F 52% 29.79 in 10.0 mi Calm Calm - N/A   Clear
2:15 AM 39.2 °F - 23.0 °F 52% 29.78 in 10.0 mi Calm Calm - N/A   Clear
2:35 AM 41.0 °F - 23.0 °F 49% 29.78 in 10.0 mi Calm Calm - N/A   Clear
2:55 AM 48.2 °F - 21.2 °F 34% 29.78 in 10.0 mi WSW 3.5 mph - N/A   Clear
3:15 AM 44.6 °F - 24.8 °F 46% 29.79 in 10.0 mi Calm Calm - N/A   Clear
3:35 AM 41.0 °F - 28.4 °F 61% 29.80 in 10.0 mi Calm Calm - N/A   Partly Cloudy
3:55 AM 41.0 °F - 32.0 °F 70% 29.80 in 10.0 mi Calm Calm - N/A   Clear
5:50 AM 41.0 °F - 30.2 °F 65% 29.78 in 10.0 mi Calm Calm - N/A   Clear
6:50 AM 41.0 °F - 32.0 °F 70% 29.80 in 10.0 mi Calm Calm - N/A   Mostly Cloudy
7:50 AM 41.0 °F - 32.0 °F 70% 29.81 in 10.0 mi Calm Calm - N/A   Mostly Cloudy
8:50 AM 46.4 °F 39.8 °F 23.0 °F 40% 29.84 in 10.0 mi NNE 16.1 mph 21.9 mph N/A   Mostly Cloudy
9:22 AM 42.8 °F 36.6 °F 19.4 °F 39% 29.86 in 8.0 mi NE 11.5 mph - N/A Rain Light Rain
9:50 AM 41.0 °F 34.7 °F 21.2 °F 45% 29.87 in 10.0 mi NE 10.4 mph - N/A Rain Light Rain
10:50 AM 37.4 °F 28.9 °F 32.0 °F 81% 29.88 in 6.0 mi North 13.8 mph - N/A Rain Light Rain
11:50 AM 35.6 °F 26.6 °F 32.0 °F 87% 29.83 in 4.0 mi North 13.8 mph - N/A Rain Light Rain
12:02 PM 35.6 °F 28.0 °F 32.0 °F 87% 29.83 in 2.0 mi North 10.4 mph - N/A Rain Light Rain
12:50 PM 35.6 °F 27.1 °F 32.0 °F 87% 29.80 in 2.5 mi North 12.7 mph - N/A Rain Light Rain
1:19 PM 33.8 °F 23.9 °F 32.0 °F 93% 29.79 in 2.0 mi North 15.0 mph - N/A Rain Light Rain
1:50 PM 33.8 °F 24.3 °F 32.0 °F 93% 29.80 in 1.2 mi NNE 13.8 mph - N/A Rain Rain
2:50 PM 35.6 °F 26.6 °F 33.8 °F 93% 29.75 in 1.0 mi NNE 13.8 mph - N/A Rain Rain
3:50 PM 35.6 °F 30.7 °F 35.6 °F 100% 29.74 in 1.0 mi NE 5.8 mph - N/A Rain Rain
4:50 PM 37.4 °F 30.3 °F 37.4 °F 100% 29.73 in 1.0 mi East 10.4 mph - N/A Rain Rain
5:15 PM 37.4 °F 28.5 °F 37.4 °F 100% 29.73 in 1.5 mi East 15.0 mph - N/A Rain Light Rain
5:35 PM 37.4 °F 27.5 °F 37.4 °F 100% 29.72 in 1.8 mi ESE 18.4 mph 21.9 mph N/A   Overcast
5:45 PM 37.4 °F 28.2 °F 37.4 °F 100% 29.73 in 1.0 mi ESE 16.1 mph 21.9 mph N/A   Overcast
5:55 PM 37.4 °F 30.3 °F 37.4 °F 100% 29.74 in 1.8 mi ESE 10.4 mph - N/A   Overcast
6:15 PM 37.4 °F 30.8 °F 37.4 °F 100% 29.73 in 1.8 mi East 9.2 mph - N/A   Overcast
6:35 PM 37.4 °F 30.8 °F 37.4 °F 100% 29.73 in 1.8 mi East 9.2 mph - N/A Rain Light Rain
6:55 PM 37.4 °F 30.8 °F 37.4 °F 100% 29.73 in 2.0 mi East 9.2 mph - N/A   Overcast
7:15 PM 39.2 °F 35.9 °F 39.2 °F 100% 29.74 in 2.0 mi East 4.6 mph - N/A Rain Light Rain
7:35 PM 39.2 °F 35.0 °F 39.2 °F 100% 29.75 in 2.0 mi East 5.8 mph - N/A Rain Light Rain
7:55 PM 37.4 °F 30.8 °F 37.4 °F 100% 29.74 in 2.5 mi East 9.2 mph - N/A   Overcast
8:15 PM 37.4 °F 32.1 °F 37.4 °F 100% 29.73 in 3.0 mi East 6.9 mph - N/A   Overcast
8:35 PM 37.4 °F - 37.4 °F 100% 29.72 in 3.0 mi Calm Calm - N/A   Overcast
8:55 PM 37.4 °F 32.8 °F 37.4 °F 100% 29.73 in 2.0 mi East 5.8 mph - N/A   Overcast
9:15 PM 37.4 °F 32.1 °F 37.4 °F 100% 29.72 in 2.0 mi East 6.9 mph - N/A Rain Light Rain
9:35 PM 37.4 °F 33.8 °F 37.4 °F 100% 29.72 in 3.0 mi East 4.6 mph - N/A   Overcast
9:55 PM 37.4 °F 30.8 °F 37.4 °F 100% 29.71 in 1.8 mi ESE 9.2 mph - 0.02 in Rain Light Rain
10:15 PM 37.4 °F - 37.4 °F 100% 29.71 in 1.8 mi Calm Calm - N/A Rain Light Rain
10:35 PM 37.4 °F - 37.4 °F 100% 29.71 in 1.5 mi Calm Calm - 0.06 in Rain Rain
10:55 PM 39.2 °F - 39.2 °F 100% 29.70 in 1.5 mi Calm Calm - 0.15 in Rain Rain
11:15 PM 39.2 °F - 39.2 °F 100% 29.70 in 2.0 mi Calm Calm - 0.02 in Rain Light Rain
11:35 PM 39.2 °F - 39.2 °F 100% 29.69 in 2.5 mi Calm Calm - 0.04 in Rain Light Rain
11:55 PM 39.2 °F 35.0 °F 39.2 °F 100% 29.66 in 3.0 mi East 5.8 mph - 0.04 in   Mostly Cloudy